Year,Month,Day,Hour,Minute,Value (Times are PST for temperature in C)
2007,03,29,00,00,4.90
2007,03,29,00,01,4.90
2007,03,29,00,02,4.80
2007,03,29,00,03,4.80
2007,03,29,00,04,4.80
2007,03,29,00,05,4.70
2007,03,29,00,06,4.70
2007,03,29,00,07,4.70
2007,03,29,00,08,4.70
2007,03,29,00,09,4.60
2007,03,29,00,10,4.60
2007,03,29,00,11,4.60
2007,03,29,00,12,4.60
2007,03,29,00,13,4.50
2007,03,29,00,14,4.50
2007,03,29,00,15,4.50
2007,03,29,00,16,4.50
2007,03,29,00,17,4.40
2007,03,29,00,18,4.40
2007,03,29,00,19,4.40
2007,03,29,00,20,4.40
2007,03,29,00,21,4.40
2007,03,29,00,22,4.40
2007,03,29,00,23,4.40
2007,03,29,00,24,4.40
2007,03,29,00,25,4.40
2007,03,29,00,26,4.40
2007,03,29,00,27,4.40
2007,03,29,00,28,4.30
2007,03,29,00,29,4.30
2007,03,29,00,30,4.30
2007,03,29,00,31,4.30
2007,03,29,00,32,4.30
2007,03,29,00,33,4.30
2007,03,29,00,34,4.30
2007,03,29,00,35,4.30
2007,03,29,00,36,4.20
2007,03,29,00,37,4.20
2007,03,29,00,38,4.20
2007,03,29,00,39,4.20
2007,03,29,00,40,4.10
2007,03,29,00,41,4.10
2007,03,29,00,42,4.10
2007,03,29,00,43,4.10
2007,03,29,00,44,4.00
2007,03,29,00,45,4.00
2007,03,29,00,46,4.00
2007,03,29,00,47,3.90
2007,03,29,00,48,3.90
2007,03,29,00,49,3.90
2007,03,29,00,50,3.90
2007,03,29,00,51,3.90
2007,03,29,00,52,3.90
2007,03,29,00,53,3.80
2007,03,29,00,54,3.80
2007,03,29,00,55,3.80
2007,03,29,00,56,3.80
2007,03,29,00,57,3.80
2007,03,29,00,58,3.80
2007,03,29,00,59,3.80
2007,03,29,01,00,3.80
2007,03,29,01,01,3.70
2007,03,29,01,02,3.70
2007,03,29,01,03,3.70
2007,03,29,01,04,3.70
2007,03,29,01,05,3.70
2007,03,29,01,06,3.70
2007,03,29,01,07,3.60
2007,03,29,01,08,3.60
2007,03,29,01,09,3.60
2007,03,29,01,10,3.60
2007,03,29,01,11,3.60
2007,03,29,01,12,3.60
2007,03,29,01,13,3.60
2007,03,29,01,14,3.60
2007,03,29,01,15,3.60
2007,03,29,01,16,3.50
2007,03,29,01,17,3.50
2007,03,29,01,18,3.50
2007,03,29,01,19,3.50
2007,03,29,01,20,3.50
2007,03,29,01,21,3.50
2007,03,29,01,22,3.40
2007,03,29,01,23,3.40
2007,03,29,01,24,3.40
2007,03,29,01,25,3.40
2007,03,29,01,26,3.40
2007,03,29,01,27,3.40
2007,03,29,01,28,3.40
2007,03,29,01,29,3.40
2007,03,29,01,30,3.40
2007,03,29,01,31,3.40
2007,03,29,01,32,3.30
2007,03,29,01,33,3.30
2007,03,29,01,34,3.30
2007,03,29,01,35,3.30
2007,03,29,01,36,3.30
2007,03,29,01,37,3.30
2007,03,29,01,38,3.30
2007,03,29,01,39,3.20
2007,03,29,01,40,3.20
2007,03,29,01,41,3.20
2007,03,29,01,42,3.20
2007,03,29,01,43,3.20
2007,03,29,01,44,3.20
2007,03,29,01,45,3.20
2007,03,29,01,46,3.20
2007,03,29,01,47,3.20
2007,03,29,01,48,3.20
2007,03,29,01,49,3.20
2007,03,29,01,50,3.20
2007,03,29,01,51,3.20
2007,03,29,01,52,3.20
2007,03,29,01,53,3.20
2007,03,29,01,54,3.20
2007,03,29,01,55,3.20
2007,03,29,01,56,3.10
2007,03,29,01,57,3.10
2007,03,29,01,58,3.10
2007,03,29,01,59,3.10
2007,03,29,02,00,3.10
2007,03,29,02,01,3.10
2007,03,29,02,02,3.10
2007,03,29,02,03,3.10
2007,03,29,02,04,3.10
2007,03,29,02,05,3.00
2007,03,29,02,06,3.00
2007,03,29,02,07,3.00
2007,03,29,02,08,3.00
2007,03,29,02,09,3.00
2007,03,29,02,10,2.90
2007,03,29,02,11,2.90
2007,03,29,02,12,2.90
2007,03,29,02,13,2.90
2007,03,29,02,14,2.90
2007,03,29,02,15,2.90
2007,03,29,02,16,2.90
2007,03,29,02,17,2.80
2007,03,29,02,18,2.80
2007,03,29,02,19,2.80
2007,03,29,02,20,2.80
2007,03,29,02,21,2.80
2007,03,29,02,22,2.80
2007,03,29,02,23,2.80
2007,03,29,02,24,2.70
2007,03,29,02,25,2.70
2007,03,29,02,26,2.70
2007,03,29,02,27,2.70
2007,03,29,02,28,2.70
2007,03,29,02,29,2.70
2007,03,29,02,30,2.70
2007,03,29,02,31,2.70
2007,03,29,02,32,2.70
2007,03,29,02,33,2.70
2007,03,29,02,34,2.70
2007,03,29,02,35,2.70
2007,03,29,02,36,2.70
2007,03,29,02,37,2.70
2007,03,29,02,38,2.70
2007,03,29,02,39,2.70
2007,03,29,02,40,2.70
2007,03,29,02,41,2.70
2007,03,29,02,42,2.70
2007,03,29,02,43,2.70
2007,03,29,02,44,2.70
2007,03,29,02,45,2.70
2007,03,29,02,46,2.70
2007,03,29,02,47,2.60
2007,03,29,02,48,2.60
2007,03,29,02,49,2.60
2007,03,29,02,50,2.60
2007,03,29,02,51,2.60
2007,03,29,02,52,2.60
2007,03,29,02,53,2.60
2007,03,29,02,54,2.60
2007,03,29,02,55,2.60
2007,03,29,02,56,2.50
2007,03,29,02,57,2.50
2007,03,29,02,58,2.50
2007,03,29,02,59,2.50
2007,03,29,03,00,2.50
2007,03,29,03,01,2.50
2007,03,29,03,02,2.50
2007,03,29,03,03,2.40
2007,03,29,03,04,2.40
2007,03,29,03,05,2.40
2007,03,29,03,06,2.40
2007,03,29,03,07,2.40
2007,03,29,03,08,2.40
2007,03,29,03,09,2.30
2007,03,29,03,10,2.30
2007,03,29,03,11,2.30
2007,03,29,03,12,2.30
2007,03,29,03,13,2.30
2007,03,29,03,14,2.30
2007,03,29,03,15,2.30
2007,03,29,03,16,2.20
2007,03,29,03,17,2.20
2007,03,29,03,18,2.20
2007,03,29,03,19,2.20
2007,03,29,03,20,2.20
2007,03,29,03,21,2.20
2007,03,29,03,22,2.20
2007,03,29,03,23,2.20
2007,03,29,03,24,2.20
2007,03,29,03,25,2.20
2007,03,29,03,26,2.20
2007,03,29,03,27,2.20
2007,03,29,03,28,2.20
2007,03,29,03,29,2.20
2007,03,29,03,30,2.20
2007,03,29,03,31,2.20
2007,03,29,03,32,2.20
2007,03,29,03,33,2.20
2007,03,29,03,34,2.20
2007,03,29,03,35,2.10
2007,03,29,03,36,2.10
2007,03,29,03,37,2.10
2007,03,29,03,38,2.10
2007,03,29,03,39,2.10
2007,03,29,03,40,2.10
2007,03,29,03,41,2.10
2007,03,29,03,42,2.10
2007,03,29,03,43,2.10
2007,03,29,03,44,2.10
2007,03,29,03,45,2.10
2007,03,29,03,46,2.10
2007,03,29,03,47,2.00
2007,03,29,03,48,2.00
2007,03,29,03,49,2.00
2007,03,29,03,50,2.00
2007,03,29,03,51,2.00
2007,03,29,03,52,2.00
2007,03,29,03,53,1.90
2007,03,29,03,54,1.90
2007,03,29,03,55,1.90
2007,03,29,03,56,1.90
2007,03,29,03,57,1.90
2007,03,29,03,58,1.90
2007,03,29,03,59,1.80
2007,03,29,04,00,1.80
2007,03,29,04,01,1.80
2007,03,29,04,02,1.90
2007,03,29,04,03,1.90
2007,03,29,04,04,1.90
2007,03,29,04,05,1.90
2007,03,29,04,06,1.90
2007,03,29,04,07,1.90
2007,03,29,04,08,1.90
2007,03,29,04,09,1.90
2007,03,29,04,10,1.90
2007,03,29,04,11,2.00
2007,03,29,04,12,2.00
2007,03,29,04,13,2.00
2007,03,29,04,14,2.10
2007,03,29,04,15,2.10
2007,03,29,04,16,2.10
2007,03,29,04,17,2.10
2007,03,29,04,18,2.20
2007,03,29,04,19,2.20
2007,03,29,04,20,2.20
2007,03,29,04,21,2.20
2007,03,29,04,22,2.20
2007,03,29,04,23,2.20
2007,03,29,04,24,2.30
2007,03,29,04,25,2.30
2007,03,29,04,26,2.30
2007,03,29,04,27,2.30
2007,03,29,04,28,2.30
2007,03,29,04,29,2.30
2007,03,29,04,30,2.30
2007,03,29,04,31,2.30
2007,03,29,04,32,2.30
2007,03,29,04,33,2.40
2007,03,29,04,34,2.40
2007,03,29,04,35,2.40
2007,03,29,04,36,2.40
2007,03,29,04,37,2.40
2007,03,29,04,38,2.40
2007,03,29,04,39,2.40
2007,03,29,04,40,2.40
2007,03,29,04,41,2.40
2007,03,29,04,42,2.40
2007,03,29,04,43,2.40
2007,03,29,04,44,2.40
2007,03,29,04,45,2.40
2007,03,29,04,46,2.40
2007,03,29,04,47,2.30
2007,03,29,04,48,2.30
2007,03,29,04,49,2.30
2007,03,29,04,50,2.30
2007,03,29,04,51,2.30
2007,03,29,04,52,2.30
2007,03,29,04,53,2.30
2007,03,29,04,54,2.30
2007,03,29,04,55,2.30
2007,03,29,04,56,2.30
2007,03,29,04,57,2.30
2007,03,29,04,58,2.30
2007,03,29,04,59,2.40
2007,03,29,05,00,2.40
2007,03,29,05,01,2.40
2007,03,29,05,02,2.40
2007,03,29,05,03,2.40
2007,03,29,05,04,2.40
2007,03,29,05,05,2.40
2007,03,29,05,06,2.40
2007,03,29,05,07,2.40
2007,03,29,05,08,2.40
2007,03,29,05,09,2.40
2007,03,29,05,10,2.40
2007,03,29,05,11,2.40
2007,03,29,05,12,2.40
2007,03,29,05,13,2.40
2007,03,29,05,14,2.40
2007,03,29,05,15,2.30
2007,03,29,05,16,2.30
2007,03,29,05,17,2.30
2007,03,29,05,18,2.30
2007,03,29,05,19,2.30
2007,03,29,05,20,2.30
2007,03,29,05,21,2.30
2007,03,29,05,22,2.30
2007,03,29,05,23,2.30
2007,03,29,05,24,2.20
2007,03,29,05,25,2.20
2007,03,29,05,26,2.20
2007,03,29,05,27,2.20
2007,03,29,05,28,2.20
2007,03,29,05,29,2.20
2007,03,29,05,30,2.20
2007,03,29,05,31,2.20
2007,03,29,05,32,2.20
2007,03,29,05,33,2.20
2007,03,29,05,34,2.20
2007,03,29,05,35,2.20
2007,03,29,05,36,2.20
2007,03,29,05,37,2.20
2007,03,29,05,38,2.20
2007,03,29,05,39,2.20
2007,03,29,05,40,2.20
2007,03,29,05,41,2.10
2007,03,29,05,42,2.10
2007,03,29,05,43,2.10
2007,03,29,05,44,2.10
2007,03,29,05,45,2.10
2007,03,29,05,46,2.10
2007,03,29,05,47,2.10
2007,03,29,05,48,2.10
2007,03,29,05,49,2.10
2007,03,29,05,50,2.10
2007,03,29,05,51,2.10
2007,03,29,05,52,2.10
2007,03,29,05,53,2.10
2007,03,29,05,54,2.00
2007,03,29,05,55,2.00
2007,03,29,05,56,2.00
2007,03,29,05,57,2.00
2007,03,29,05,58,2.00
2007,03,29,05,59,2.00
2007,03,29,06,00,2.00
2007,03,29,06,01,2.00
2007,03,29,06,02,2.00
2007,03,29,06,03,2.00
2007,03,29,06,04,2.00
2007,03,29,06,05,2.00
2007,03,29,06,06,2.00
2007,03,29,06,07,2.00
2007,03,29,06,08,1.90
2007,03,29,06,09,1.90
2007,03,29,06,10,1.90
2007,03,29,06,11,1.90
2007,03,29,06,12,1.90
2007,03,29,06,13,1.90
2007,03,29,06,14,1.90
2007,03,29,06,15,1.90
2007,03,29,06,16,1.90
2007,03,29,06,17,1.90
2007,03,29,06,18,2.00
2007,03,29,06,19,2.00
2007,03,29,06,20,2.00
2007,03,29,06,21,2.00
2007,03,29,06,22,2.00
2007,03,29,06,23,2.00
2007,03,29,06,24,2.00
2007,03,29,06,25,2.00
2007,03,29,06,26,2.00
2007,03,29,06,27,2.00
2007,03,29,06,28,2.00
2007,03,29,06,29,2.00
2007,03,29,06,30,2.00
2007,03,29,06,31,2.00
2007,03,29,06,32,2.00
2007,03,29,06,33,2.00
2007,03,29,06,34,2.00
2007,03,29,06,35,2.00
2007,03,29,06,36,2.00
2007,03,29,06,37,2.00
2007,03,29,06,38,2.00
2007,03,29,06,39,2.00
2007,03,29,06,40,2.00
2007,03,29,06,41,1.90
2007,03,29,06,42,1.90
2007,03,29,06,43,1.90
2007,03,29,06,44,1.90
2007,03,29,06,45,1.90
2007,03,29,06,46,1.90
2007,03,29,06,47,1.90
2007,03,29,06,48,1.90
2007,03,29,06,49,1.90
2007,03,29,06,50,1.90
2007,03,29,06,51,1.90
2007,03,29,06,52,1.90
2007,03,29,06,53,1.90
2007,03,29,06,54,1.90
2007,03,29,06,55,1.90
2007,03,29,06,56,1.90
2007,03,29,06,57,1.80
2007,03,29,06,58,1.80
2007,03,29,06,59,1.80
2007,03,29,07,00,1.80
2007,03,29,07,01,1.80
2007,03,29,07,02,1.80
2007,03,29,07,03,1.80
2007,03,29,07,04,1.80
2007,03,29,07,05,1.70
2007,03,29,07,06,1.70
2007,03,29,07,07,1.70
2007,03,29,07,08,1.70
2007,03,29,07,09,1.70
2007,03,29,07,10,1.70
2007,03,29,07,11,1.70
2007,03,29,07,12,1.70
2007,03,29,07,13,1.70
2007,03,29,07,14,1.70
2007,03,29,07,15,1.70
2007,03,29,07,16,1.70
2007,03,29,07,17,1.70
2007,03,29,07,18,1.60
2007,03,29,07,19,1.60
2007,03,29,07,20,1.60
2007,03,29,07,21,1.60
2007,03,29,07,22,1.60
2007,03,29,07,23,1.60
2007,03,29,07,24,1.60
2007,03,29,07,25,1.60
2007,03,29,07,26,1.60
2007,03,29,07,27,1.60
2007,03,29,07,28,1.60
2007,03,29,07,29,1.60
2007,03,29,07,30,1.60
2007,03,29,07,31,1.60
2007,03,29,07,32,1.60
2007,03,29,07,33,1.60
2007,03,29,07,34,1.60
2007,03,29,07,35,1.60
2007,03,29,07,36,1.60
2007,03,29,07,37,1.60
2007,03,29,07,38,1.60
2007,03,29,07,39,1.60
2007,03,29,07,40,1.60
2007,03,29,07,41,1.60
2007,03,29,07,42,1.60
2007,03,29,07,43,1.60
2007,03,29,07,44,1.60
2007,03,29,07,45,1.60
2007,03,29,07,46,1.60
2007,03,29,07,47,1.60
2007,03,29,07,48,1.60
2007,03,29,07,49,1.60
2007,03,29,07,50,1.60
2007,03,29,07,51,1.70
2007,03,29,07,52,1.70
2007,03,29,07,53,1.70
2007,03,29,07,54,1.70
2007,03,29,07,55,1.70
2007,03,29,07,56,1.70
2007,03,29,07,57,1.80
2007,03,29,07,58,1.80
2007,03,29,07,59,1.80
2007,03,29,08,00,1.80
2007,03,29,08,01,1.80
2007,03,29,08,02,1.90
2007,03,29,08,03,1.90
2007,03,29,08,04,1.90
2007,03,29,08,05,1.90
2007,03,29,08,06,1.90
2007,03,29,08,07,1.90
2007,03,29,08,08,2.00
2007,03,29,08,09,2.00
2007,03,29,08,10,2.00
2007,03,29,08,11,2.00
2007,03,29,08,12,2.00
2007,03,29,08,13,2.10
2007,03,29,08,14,2.10
2007,03,29,08,15,2.10
2007,03,29,08,16,2.10
2007,03,29,08,17,2.10
2007,03,29,08,18,2.10
2007,03,29,08,19,2.10
2007,03,29,08,20,2.10
2007,03,29,08,21,2.10
2007,03,29,08,22,2.10
2007,03,29,08,23,2.10
2007,03,29,08,24,2.10
2007,03,29,08,25,2.20
2007,03,29,08,26,2.20
2007,03,29,08,27,2.20
2007,03,29,08,28,2.20
2007,03,29,08,29,2.20
2007,03,29,08,30,2.20
2007,03,29,08,31,2.20
2007,03,29,08,32,2.20
2007,03,29,08,33,2.20
2007,03,29,08,34,2.30
2007,03,29,08,35,2.30
2007,03,29,08,36,2.30
2007,03,29,08,37,2.40
2007,03,29,08,38,2.40
2007,03,29,08,39,2.40
2007,03,29,08,40,2.40
2007,03,29,08,41,2.40
2007,03,29,08,42,2.50
2007,03,29,08,43,2.50
2007,03,29,08,44,2.50
2007,03,29,08,45,2.60
2007,03,29,08,46,2.60
2007,03,29,08,47,2.60
2007,03,29,08,48,2.60
2007,03,29,08,49,2.60
2007,03,29,08,50,2.70
2007,03,29,08,51,2.70
2007,03,29,08,52,2.70
2007,03,29,08,53,2.70
2007,03,29,08,54,2.70
2007,03,29,08,55,2.70
2007,03,29,08,56,2.70
2007,03,29,08,57,2.70
2007,03,29,08,58,2.70
2007,03,29,08,59,2.70
2007,03,29,09,00,2.80
2007,03,29,09,01,2.80
2007,03,29,09,02,2.80
2007,03,29,09,03,2.80
2007,03,29,09,04,2.80
2007,03,29,09,05,2.80
2007,03,29,09,06,2.90
2007,03,29,09,07,2.90
2007,03,29,09,08,2.90
2007,03,29,09,09,3.00
2007,03,29,09,10,3.00
2007,03,29,09,11,3.10
2007,03,29,09,12,3.10
2007,03,29,09,13,3.10
2007,03,29,09,14,3.10
2007,03,29,09,15,3.20
2007,03,29,09,16,3.20
2007,03,29,09,17,3.20
2007,03,29,09,18,3.30
2007,03,29,09,19,3.30
2007,03,29,09,20,3.30
2007,03,29,09,21,3.40
2007,03,29,09,22,3.40
2007,03,29,09,23,3.40
2007,03,29,09,24,3.50
2007,03,29,09,25,3.50
2007,03,29,09,26,3.60
2007,03,29,09,27,3.60
2007,03,29,09,28,3.60
2007,03,29,09,29,3.70
2007,03,29,09,30,3.70
2007,03,29,09,31,3.70
2007,03,29,09,32,3.80
2007,03,29,09,33,3.80
2007,03,29,09,34,3.80
2007,03,29,09,35,3.90
2007,03,29,09,36,3.90
2007,03,29,09,37,3.90
2007,03,29,09,38,4.00
2007,03,29,09,39,4.00
2007,03,29,09,40,4.00
2007,03,29,09,41,4.10
2007,03,29,09,42,4.10
2007,03,29,09,43,4.10
2007,03,29,09,44,4.10
2007,03,29,09,45,4.20
2007,03,29,09,46,4.20
2007,03,29,09,47,4.30
2007,03,29,09,48,4.30
2007,03,29,09,49,4.40
2007,03,29,09,50,4.40
2007,03,29,09,51,4.50
2007,03,29,09,52,4.50
2007,03,29,09,53,4.60
2007,03,29,09,54,4.70
2007,03,29,09,55,4.70
2007,03,29,09,56,4.80
2007,03,29,09,57,4.90
2007,03,29,09,58,4.90
2007,03,29,09,59,5.00
2007,03,29,10,00,5.10
2007,03,29,10,01,5.10
2007,03,29,10,02,5.20
2007,03,29,10,03,5.20
2007,03,29,10,04,5.30
2007,03,29,10,05,5.40
2007,03,29,10,06,5.40
2007,03,29,10,07,5.50
2007,03,29,10,08,5.60
2007,03,29,10,09,5.70
2007,03,29,10,10,5.70
2007,03,29,10,11,5.80
2007,03,29,10,12,5.80
2007,03,29,10,13,5.90
2007,03,29,10,14,6.00
2007,03,29,10,15,6.00
2007,03,29,10,16,6.10
2007,03,29,10,17,6.20
2007,03,29,10,18,6.30
2007,03,29,10,19,6.40
2007,03,29,10,20,6.50
2007,03,29,10,21,6.50
2007,03,29,10,22,6.60
2007,03,29,10,23,6.70
2007,03,29,10,24,6.70
2007,03,29,10,25,6.80
2007,03,29,10,26,6.90
2007,03,29,10,27,7.10
2007,03,29,10,28,7.20
2007,03,29,10,29,7.30
2007,03,29,10,30,7.40
2007,03,29,10,31,7.50
2007,03,29,10,32,7.50
2007,03,29,10,33,7.60
2007,03,29,10,34,7.70
2007,03,29,10,35,7.70
2007,03,29,10,36,7.80
2007,03,29,10,37,7.90
2007,03,29,10,38,7.90
2007,03,29,10,39,8.00
2007,03,29,10,40,8.10
2007,03,29,10,41,8.20
2007,03,29,10,42,8.30
2007,03,29,10,43,8.30
2007,03,29,10,44,8.40
2007,03,29,10,45,8.50
2007,03,29,10,46,8.50
2007,03,29,10,47,8.60
2007,03,29,10,48,8.60
2007,03,29,10,49,8.70
2007,03,29,10,50,8.80
2007,03,29,10,51,8.80
2007,03,29,10,52,8.90
2007,03,29,10,53,9.00
2007,03,29,10,54,9.00
2007,03,29,10,55,9.10
2007,03,29,10,56,9.20
2007,03,29,10,57,9.30
2007,03,29,10,58,9.30
2007,03,29,10,59,9.30
2007,03,29,11,00,9.30
2007,03,29,11,01,9.30
2007,03,29,11,02,9.30
2007,03,29,11,03,9.30
2007,03,29,11,04,9.20
2007,03,29,11,05,9.20
2007,03,29,11,06,9.20
2007,03,29,11,07,9.30
2007,03,29,11,08,9.30
2007,03,29,11,09,9.30
2007,03,29,11,10,9.20
2007,03,29,11,11,9.20
2007,03,29,11,12,9.20
2007,03,29,11,13,9.20
2007,03,29,11,14,9.30
2007,03,29,11,15,9.30
2007,03,29,11,16,9.40
2007,03,29,11,17,9.40
2007,03,29,11,18,9.50
2007,03,29,11,19,9.50
2007,03,29,11,20,9.60
2007,03,29,11,21,9.60
2007,03,29,11,22,9.60
2007,03,29,11,23,9.70
2007,03,29,11,24,9.70
2007,03,29,11,25,9.80
2007,03,29,11,26,9.80
2007,03,29,11,27,9.90
2007,03,29,11,28,9.90
2007,03,29,11,29,9.90
2007,03,29,11,30,10.00
2007,03,29,11,31,9.90
2007,03,29,11,32,9.90
2007,03,29,11,33,9.90
2007,03,29,11,34,9.90
2007,03,29,11,35,9.90
2007,03,29,11,36,9.90
2007,03,29,11,37,9.90
2007,03,29,11,38,9.90
2007,03,29,11,39,9.90
2007,03,29,11,40,9.90
2007,03,29,11,41,9.90
2007,03,29,11,42,9.90
2007,03,29,11,43,9.90
2007,03,29,11,44,9.90
2007,03,29,11,45,9.80
2007,03,29,11,46,9.80
2007,03,29,11,47,9.80
2007,03,29,11,48,9.80
2007,03,29,11,49,9.80
2007,03,29,11,50,9.80
2007,03,29,11,51,9.90
2007,03,29,11,52,9.90
2007,03,29,11,53,10.00
2007,03,29,11,54,10.00
2007,03,29,11,55,10.10
2007,03,29,11,56,10.10
2007,03,29,11,57,10.10
2007,03,29,11,58,10.20
2007,03,29,11,59,10.20
2007,03,29,12,00,10.20
2007,03,29,12,01,10.30
2007,03,29,12,02,10.30
2007,03,29,12,03,10.30
2007,03,29,12,04,10.30
2007,03,29,12,05,10.30
2007,03,29,12,06,10.30
2007,03,29,12,07,10.30
2007,03,29,12,08,10.30
2007,03,29,12,09,10.30
2007,03,29,12,10,10.30
2007,03,29,12,11,10.30
2007,03,29,12,12,10.40
2007,03,29,12,13,10.40
2007,03,29,12,14,10.40
2007,03,29,12,15,10.50
2007,03,29,12,16,10.50
2007,03,29,12,17,10.60
2007,03,29,12,18,10.70
2007,03,29,12,19,10.70
2007,03,29,12,20,10.70
2007,03,29,12,21,10.70
2007,03,29,12,22,10.70
2007,03,29,12,23,10.80
2007,03,29,12,24,10.80
2007,03,29,12,25,10.80
2007,03,29,12,26,10.90
2007,03,29,12,27,10.90
2007,03,29,12,28,11.00
2007,03,29,12,29,11.00
2007,03,29,12,30,11.10
2007,03,29,12,31,11.10
2007,03,29,12,32,11.10
2007,03,29,12,33,11.00
2007,03,29,12,34,10.90
2007,03,29,12,35,10.80
2007,03,29,12,36,10.80
2007,03,29,12,37,10.90
2007,03,29,12,38,10.90
2007,03,29,12,39,11.00
2007,03,29,12,40,11.00
2007,03,29,12,41,11.00
2007,03,29,12,42,11.10
2007,03,29,12,43,11.20
2007,03,29,12,44,11.20
2007,03,29,12,45,11.30
2007,03,29,12,46,11.30
2007,03,29,12,47,11.30
2007,03,29,12,48,11.30
2007,03,29,12,49,11.30
2007,03,29,12,50,11.40
2007,03,29,12,51,11.40
2007,03,29,12,52,11.40
2007,03,29,12,53,11.40
2007,03,29,12,54,11.30
2007,03,29,12,55,11.20
2007,03,29,12,56,11.10
2007,03,29,12,57,11.00
2007,03,29,12,58,11.00
2007,03,29,12,59,10.90
2007,03,29,13,00,10.90
2007,03,29,13,01,10.90
2007,03,29,13,02,10.80
2007,03,29,13,03,10.80
2007,03,29,13,04,10.90
2007,03,29,13,05,10.90
2007,03,29,13,06,11.00
2007,03,29,13,07,11.00
2007,03,29,13,08,10.90
2007,03,29,13,09,11.00
2007,03,29,13,10,11.00
2007,03,29,13,11,10.90
2007,03,29,13,12,10.90
2007,03,29,13,13,10.80
2007,03,29,13,14,10.80
2007,03,29,13,15,10.90
2007,03,29,13,16,10.90
2007,03,29,13,17,11.00
2007,03,29,13,18,11.00
2007,03,29,13,19,11.00
2007,03,29,13,20,11.10
2007,03,29,13,21,11.20
2007,03,29,13,22,11.30
2007,03,29,13,23,11.40
2007,03,29,13,24,11.50
2007,03,29,13,25,11.60
2007,03,29,13,26,11.70
2007,03,29,13,27,11.80
2007,03,29,13,28,11.90
2007,03,29,13,29,12.00
2007,03,29,13,30,12.00
2007,03,29,13,31,12.10
2007,03,29,13,32,12.20
2007,03,29,13,33,12.20
2007,03,29,13,34,12.30
2007,03,29,13,35,12.20
2007,03,29,13,36,12.20
2007,03,29,13,37,12.10
2007,03,29,13,38,12.00
2007,03,29,13,39,12.00
2007,03,29,13,40,11.90
2007,03,29,13,41,11.90
2007,03,29,13,42,11.90
2007,03,29,13,43,11.90
2007,03,29,13,44,11.90
2007,03,29,13,45,12.00
2007,03,29,13,46,12.00
2007,03,29,13,47,12.10
2007,03,29,13,48,12.10
2007,03,29,13,49,12.10
2007,03,29,13,50,12.10
2007,03,29,13,51,12.10
2007,03,29,13,52,12.10
2007,03,29,13,53,12.00
2007,03,29,13,54,12.00
2007,03,29,13,55,11.90
2007,03,29,13,56,11.90
2007,03,29,13,57,11.90
2007,03,29,13,58,11.90
2007,03,29,13,59,11.90
2007,03,29,14,00,11.90
2007,03,29,14,01,12.00
2007,03,29,14,02,12.00
2007,03,29,14,03,12.10
2007,03,29,14,04,12.10
2007,03,29,14,05,12.20
2007,03,29,14,06,12.20
2007,03,29,14,07,12.20
2007,03,29,14,08,12.30
2007,03,29,14,09,12.40
2007,03,29,14,10,12.40
2007,03,29,14,11,12.50
2007,03,29,14,12,12.50
2007,03,29,14,13,12.60
2007,03,29,14,14,12.60
2007,03,29,14,15,12.60
2007,03,29,14,16,12.60
2007,03,29,14,17,12.60
2007,03,29,14,18,12.60
2007,03,29,14,19,12.60
2007,03,29,14,20,12.60
2007,03,29,14,21,12.60
2007,03,29,14,22,12.60
2007,03,29,14,23,12.60
2007,03,29,14,24,12.60
2007,03,29,14,25,12.60
2007,03,29,14,26,12.60
2007,03,29,14,27,12.70
2007,03,29,14,28,12.70
2007,03,29,14,29,12.70
2007,03,29,14,30,12.70
2007,03,29,14,31,12.70
2007,03,29,14,32,12.80
2007,03,29,14,33,12.80
2007,03,29,14,34,12.80
2007,03,29,14,35,12.90
2007,03,29,14,36,13.00
2007,03,29,14,37,13.10
2007,03,29,14,38,13.10
2007,03,29,14,39,13.20
2007,03,29,14,40,13.20
2007,03,29,14,41,13.20
2007,03,29,14,42,13.10
2007,03,29,14,43,13.10
2007,03,29,14,44,13.10
2007,03,29,14,45,13.10
2007,03,29,14,46,13.00
2007,03,29,14,47,13.00
2007,03,29,14,48,13.00
2007,03,29,14,49,13.00
2007,03,29,14,50,12.90
2007,03,29,14,51,12.80
2007,03,29,14,52,12.80
2007,03,29,14,53,12.70
2007,03,29,14,54,12.70
2007,03,29,14,55,12.70
2007,03,29,14,56,12.80
2007,03,29,14,57,12.90
2007,03,29,14,58,12.90
2007,03,29,14,59,12.90
2007,03,29,15,00,12.90
2007,03,29,15,01,13.00
2007,03,29,15,02,12.90
2007,03,29,15,03,12.90
2007,03,29,15,04,12.80
2007,03,29,15,05,12.70
2007,03,29,15,06,12.70
2007,03,29,15,07,12.80
2007,03,29,15,08,12.80
2007,03,29,15,09,12.90
2007,03,29,15,10,13.10
2007,03,29,15,11,13.20
2007,03,29,15,12,13.40
2007,03,29,15,13,13.50
2007,03,29,15,14,13.60
2007,03,29,15,15,13.70
2007,03,29,15,16,13.80
2007,03,29,15,17,13.90
2007,03,29,15,18,13.90
2007,03,29,15,19,14.00
2007,03,29,15,20,14.00
2007,03,29,15,21,14.00
2007,03,29,15,22,13.90
2007,03,29,15,23,13.80
2007,03,29,15,24,13.70
2007,03,29,15,25,13.60
2007,03,29,15,26,13.50
2007,03,29,15,27,13.50
2007,03,29,15,28,13.50
2007,03,29,15,29,13.50
2007,03,29,15,30,13.50
2007,03,29,15,31,13.60
2007,03,29,15,32,13.70
2007,03,29,15,33,13.80
2007,03,29,15,34,13.90
2007,03,29,15,35,14.00
2007,03,29,15,36,14.10
2007,03,29,15,37,14.10
2007,03,29,15,38,14.20
2007,03,29,15,39,14.20
2007,03,29,15,40,14.20
2007,03,29,15,41,14.20
2007,03,29,15,42,14.20
2007,03,29,15,43,14.20
2007,03,29,15,44,14.10
2007,03,29,15,45,14.10
2007,03,29,15,46,14.10
2007,03,29,15,47,14.10
2007,03,29,15,48,14.10
2007,03,29,15,49,14.10
2007,03,29,15,50,14.10
2007,03,29,15,51,14.10
2007,03,29,15,52,14.10
2007,03,29,15,53,14.10
2007,03,29,15,54,14.10
2007,03,29,15,55,14.10
2007,03,29,15,56,14.00
2007,03,29,15,57,14.00
2007,03,29,15,58,13.90
2007,03,29,15,59,13.90
2007,03,29,16,00,13.80
2007,03,29,16,01,13.70
2007,03,29,16,02,13.60
2007,03,29,16,03,13.60
2007,03,29,16,04,13.50
2007,03,29,16,05,13.40
2007,03,29,16,06,13.40
2007,03,29,16,07,13.40
2007,03,29,16,08,13.30
2007,03,29,16,09,13.30
2007,03,29,16,10,13.30
2007,03,29,16,11,13.30
2007,03,29,16,12,13.30
2007,03,29,16,13,13.30
2007,03,29,16,14,13.30
2007,03,29,16,15,13.30
2007,03,29,16,16,13.30
2007,03,29,16,17,13.20
2007,03,29,16,18,13.20
2007,03,29,16,19,13.10
2007,03,29,16,20,13.10
2007,03,29,16,21,13.10
2007,03,29,16,22,13.10
2007,03,29,16,23,13.10
2007,03,29,16,24,13.10
2007,03,29,16,25,13.20
2007,03,29,16,26,13.30
2007,03,29,16,27,13.40
2007,03,29,16,28,13.40
2007,03,29,16,29,13.50
2007,03,29,16,30,13.50
2007,03,29,16,31,13.60
2007,03,29,16,32,13.70
2007,03,29,16,33,13.70
2007,03,29,16,34,13.70
2007,03,29,16,35,13.80
2007,03,29,16,36,13.80
2007,03,29,16,37,13.80
2007,03,29,16,38,13.90
2007,03,29,16,39,13.90
2007,03,29,16,40,14.00
2007,03,29,16,41,14.00
2007,03,29,16,42,14.00
2007,03,29,16,43,14.00
2007,03,29,16,44,14.00
2007,03,29,16,45,13.90
2007,03,29,16,46,13.90
2007,03,29,16,47,13.80
2007,03,29,16,48,13.70
2007,03,29,16,49,13.70
2007,03,29,16,50,13.60
2007,03,29,16,51,13.60
2007,03,29,16,52,13.50
2007,03,29,16,53,13.30
2007,03,29,16,54,13.20
2007,03,29,16,55,13.10
2007,03,29,16,56,13.00
2007,03,29,16,57,12.90
2007,03,29,16,58,12.90
2007,03,29,16,59,12.90
2007,03,29,17,00,12.80
2007,03,29,17,01,12.80
2007,03,29,17,02,12.80
2007,03,29,17,03,12.80
2007,03,29,17,04,12.80
2007,03,29,17,05,12.80
2007,03,29,17,06,12.80
2007,03,29,17,07,12.80
2007,03,29,17,08,12.80
2007,03,29,17,09,12.70
2007,03,29,17,10,12.70
2007,03,29,17,11,12.70
2007,03,29,17,12,12.70
2007,03,29,17,13,12.70
2007,03,29,17,14,12.70
2007,03,29,17,15,12.70
2007,03,29,17,16,12.70
2007,03,29,17,17,12.70
2007,03,29,17,18,12.70
2007,03,29,17,19,12.70
2007,03,29,17,20,12.70
2007,03,29,17,21,12.80
2007,03,29,17,22,12.80
2007,03,29,17,23,12.80
2007,03,29,17,24,12.80
2007,03,29,17,25,12.80
2007,03,29,17,26,12.80
2007,03,29,17,27,12.80
2007,03,29,17,28,12.80
2007,03,29,17,29,12.80
2007,03,29,17,30,12.90
2007,03,29,17,31,12.90
2007,03,29,17,32,12.90
2007,03,29,17,33,13.00
2007,03,29,17,34,13.10
2007,03,29,17,35,13.10
2007,03,29,17,36,13.10
2007,03,29,17,37,13.10
2007,03,29,17,38,13.10
2007,03,29,17,39,13.10
2007,03,29,17,40,13.10
2007,03,29,17,41,13.10
2007,03,29,17,42,13.10
2007,03,29,17,43,13.10
2007,03,29,17,44,13.10
2007,03,29,17,45,13.10
2007,03,29,17,46,13.20
2007,03,29,17,47,13.20
2007,03,29,17,48,13.20
2007,03,29,17,49,13.30
2007,03,29,17,50,13.30